Torna al catalogo

COSMOS 970 DEB

AttivoLEO
NORAD 10877·DEBRIS·🇷🇺 Russia

Lanciato Dec 21, 1977 da Baikonur Cosmodrome

Loading…

Prossimi Passaggi (prossime 24 ore)

TLE

AggiornatoSource: Space-Track

Epoca: Sep 14, 2026, 11:46 UTC

1 10877U 77121Y   26257.49045198  .00000171  00000-0  23766-3 0  9999
2 10877  65.7697 336.4921 0151998 261.6683  96.7122 13.76332592440813

Traccia COSMOS 970 DEB in tempo reale con AllMySat

Download on the App Store